Regional Weather Roundup
Issued by NWS

Home | Current Version | Previous Version | Graphics & Text | Print | Product List | Glossary On
Versions: 1 2 3 4 5 6 7 8 9 10 11 12 13 14 15 16 17 18 19 20 21 22 23 24 25 26 27 28 29 30 31 32 33 34 35 36 37 38 39 40 41 42 43 44 45 46 47 48 49 50
000
ASUS43 KLOT 240904
RWRIL

ILLINOIS REGIONAL WEATHER ROUNDUP
NATIONAL WEATHER SERVICE CHICAGO/ROMEOVILLE IL
400 AM CDT SAT JUN 24 2017

NOTE: "FAIR" INDICATES FEW OR NO CLOUDS BELOW 12,000 FEET WITH NO
SIGNIFICANT WEATHER AND/OR OBSTRUCTIONS TO VISIBILITY.

* THESE STATIONS ARE NOT UNDER NWS QUALITY CONTROL. THEY ALSO MAY NOT
  REPORT WEATHER SUCH AS PRECIPITATION OR FOG.

ILZ001-002-007-009-015-016-024-241000-
NORTHWEST ILLINOIS

CITY           SKY/WX    TMP DP  RH WIND       PRES   REMARKS
MOLINE         CLEAR     63  53  70 NW14      29.97R
STERLING*      CLEAR     60  55  83 W10       29.94R
SAVANNA*       PTCLDY    62  55  77 W10       29.94S
$$

ILZ003-004-008-010-011-017-018-241000-
NORTH CENTRAL ILLINOIS

CITY           SKY/WX    TMP DP  RH WIND       PRES   REMARKS
ROCKFORD       CLEAR     62  54  74 NW9       29.91S
FREEPORT*      CLEAR     59  54  82 W9        29.94S
ROCHELLE*      PTCLDY    58  55  88 W8        29.92S
DE KALB*       PTCLDY    59  55  87 W9        29.92R
PERU*          PTCLDY    59  55  84 W9        29.94S
$$

ILZ005-006-012>014-019>023-241000-
NORTHEAST ILLINOIS

CITY           SKY/WX    TMP DP  RH WIND       PRES   REMARKS
CHICAGO-OHARE  CLEAR     63  55  75 W10       29.88R
CHICAGO-MIDWAY CLEAR     64  56  75 W8        29.88R
AURORA         CLEAR     59  56  89 W9        29.92R
LANSING*       CLEAR     62  54  74 W6        29.89S
JOLIET*        CLEAR     62  58  86 CALM      29.91R
WAUKEGAN       PTCLDY    61  55  81 W5        29.86R
DUPAGE AIRPORT CLEAR     60  57  89 W8        29.89R
WHEELING       CLEAR     63  57  81 NW7       29.89R
MORRIS*        CLEAR     58  56  91 W6        29.91R
ROMEOVILLE*    CLEAR     61  55  80 W6        29.91R
NORTHERLY ISL    N/A     65  54  67 NW5         N/A
$$

LMZ740>746-241000-
SOUTHERN LAKE MICHIGAN

STATION/POSITION SKY/WX   TEMP    WIND        PRES    VSBY  WAVE
                          AIR SEA DIR/SP/G                  HT/PER
                          (F)     (DEG/KT/KT) (MB)    (MI)  (FT/S)
SOUTHERN BUOY              63 62  310/ 16/ 19 1009.6          2/ 4
WILMETTE HARBOR            64 64  280/ 12/ 14   N/A           2/ 2
HARRISON CRIB              66     290/ 12/ 12   N/A
BURNHAM HARBOR             65                   N/A
CALUMET HARBOR             65     260/  3/  7 1011.3R
BURNS HARBOR               66     280/ 14/ 17 1011.9S
MICHIGAN CITY              66     270/ 19/ 21   N/A
MICHIGAN CITY 6N           67 68  290/ 14/ 17   N/A           3/ 4
ST. JOSEPH                 66 68  310/ 16/ 19 1011.1R         3/ 4
$$

ILZ025>027-034>036-040-047-049-050-058-095>099-241000-
WEST-CENTRAL ILLINOIS

CITY           SKY/WX    TMP DP  RH WIND       PRES   REMARKS
QUINCY         CLEAR     60  54  80 NW6       30.02R
GALESBURG*     CLEAR     58  54  86 W6        30.00R
MACOMB*        CLEAR     59  55  85 NW10      30.02R
JACKSONVILLE*  PTCLDY    60  55  83 W7        30.00S
PITTSFIELD*    PTCLDY    62  56  81 W6        30.03S
$$

ILZ028>032-037-038-041>044-048-051>054-059>061-241000-
CENTRAL ILLINOIS

CITY           SKY/WX    TMP DP  RH WIND       PRES   REMARKS
PONTIAC        CLEAR     60  59  97 W6        29.95S
BLOOMINGTON    CLEAR     60  55  83 NW9       29.97S
DECATUR        PTCLDY    62  55  77 NW9       29.97S
PEORIA         CLEAR     62  56  80 NW7       29.97R
LACON*         CLEAR     62  56  81 NW7       29.95S
LINCOLN*       PTCLDY    63  57  82 CALM      29.97S
SPRINGFIELD    PTCLDY    60  57  89 W6        29.99R
TAYLORVILLE    CLEAR     61  56  81 W10       29.99R
$$

ILZ033-039-045-046-055>057-062-063-241000-
EAST-CENTRAL ILLINOIS

CITY           SKY/WX    TMP DP  RH WIND       PRES   REMARKS
CHAMPAIGN      PTCLDY    59  55  87 W7        29.95F
RANTOUL*       PTCLDY    61  58  90 W8        29.94F
MATTOON        CLEAR     60  57  89 NW8       29.95R
PARIS*         CLOUDY    59  57  95 W6        29.95S
$$

ILZ079-100>102-241000-
SOUTHWEST ILLINOIS

CITY           SKY/WX    TMP DP  RH WIND       PRES   REMARKS
ALTON          CLEAR     64  56  77 NW6       30.00S
BELLEVILLE     CLEAR     65  55  70 W3        30.01R
CAHOKIA*       CLEAR     67  54  63 NW9       30.00S
SPARTA*        CLEAR     64  56  74 W3        30.02R
$$

ILZ064>066-069>071-074>076-080>082-084>086-088>090-092>094-241000-
SOUTH-CENTRAL ILLINOIS

CITY           SKY/WX    TMP DP  RH WIND       PRES   REMARKS
CARBONDALE     CLOUDY    63  60  90 NW5       30.00R
CAIRO*         MOCLDY    69  59  72 N7        29.99R
EFFINGHAM*     CLEAR     62  58  87 W5        29.98S
MARION         PTCLDY    66  63  88 W3        30.00R
MT. VERNON     CLOUDY    61  58  90 CALM      29.99R
CENTRALIA*     CLOUDY    63  59  86 W5        29.99R
SALEM*         CLEAR     63  57  82 CALM      29.99R
METROPOLIS*    PTCLDY    66  61  82 CALM      29.99R
$$

ILZ067-068-072-073-078-083-087-091-241000-
SOUTHEAST ILLINOIS

CITY           SKY/WX    TMP DP  RH WIND       PRES   REMARKS
LAWRENCEVILLE  CLOUDY    63  59  87 NW6       29.95S
FLORA*         PTCLDY    65  58  78 NW6       29.97F
FAIRFIELD*     CLOUDY    64  57  78 CALM      29.97R
HARRISBURG*    MOCLDY    65  60  85 NW3       29.99R
ROBINSON*      MOCLDY    60  58  92 CALM      29.96R
CARMI*         PTCLDY    64  60  89 NW6       29.96S
$$

ABBREVIATIONS USED IN REMARKS
   TC - TEMPERATURE IN CELSIUS
  WCI - WIND CHILL INDEX
   HX - HEAT INDEX
  VSB - VISIBILITY
$$




USA.gov is the U.S. government's official web portal to all federal, state and local government web resources and services.